Flag for U.S.A. Weather past 2 weeks in Rapid City, South Dakota, U.S.A.

Now
51 °F

Clear.


Feels Like: 49 °F
Forecast: 47 / 78 °F
Wind: 6 mph from Southwest

Location: Ellsworth Air Force Base

Current Time: Sep 2, 2014 at 2:13:22 AM

Latest Report: Sep 2, 2014 at 12:58 AM


Visibility: 10 mi

Pressure: 29.96 "Hg

Humidity: 75%

Dew point: 44 °F

Location of Rapid CityLocation

Historic Weather in Rapid City — Graph

°F

Rapid City temperature yesterday

Maximum temperature yesterday: 71 °F (at 12:58 PM)
Minimum temperature yesterday: 50 °F (at 4:58 AM)
Average temperature yesterday: 59 °F

Past Weeks' High & Low Weather Summary

 TemperatureHumidityPressure
High88 °F (Aug 30, 3:58 PM)100% (Aug 22, 5:58 AM)30.18 "Hg (Aug 22, 5:58 AM)
Low49 °F (Aug 25, 4:58 AM)30% (Aug 30, 4:58 PM)29.57 "Hg (Aug 30, 7:58 PM)
Average67 °F69%29.90 "Hg
* Reported Aug 18 12:58 AM — Sep 2 12:58 AM, Rapid City, Weather by CustomWeather, © 2014

Note: Actual official high and low records may vary slightly from our data, if they occured in-between our weather recording intervals... More about our weather records

Advertising

Rapid City weather history for previous 24 hours

 ConditionsComfort  
Time TempWeatherWind HumidityBarometerVisibility
12:58 AM
Sep 2
51 °FClear.6 mph75%29.96 "Hg10 mi
11:58 PM
Sep 1
52 °FClear.8 mph77%29.98 "Hg10 mi
10:58 PM51 °FClear.7 mph82%29.98 "Hg10 mi
9:58 PM54 °FClear.5 mph79%29.98 "Hg10 mi
8:58 PM56 °FClear.6 mph68%29.97 "Hg10 mi
7:58 PM59 °FSunny.3 mph68%29.94 "Hg10 mi
6:58 PM64 °FSunny.5 mph59%29.93 "Hg10 mi
5:58 PM65 °FSunny.7 mph56%29.93 "Hg10 mi
4:58 PM66 °FScattered clouds.9 mph53%29.92 "Hg10 mi
3:58 PM61 °FOvercast.7 mph72%29.93 "Hg10 mi
2:58 PM57 °FLight rain. Mostly cloudy.6 mph85%29.96 "Hg9 mi
2:04 PM68 °FThundershowers. Broken clouds.15 mph43%29.94 "Hg10 mi
1:58 PM68 °FThundershowers. Mostly cloudy.13 mph41%29.90 "Hg10 mi
12:58 PM71 °FPartly sunny.16 mph40%29.89 "Hg10 mi
11:58 AM70 °FPartly sunny.13 mph42%29.90 "Hg10 mi
10:58 AM69 °FPartly sunny.6 mph47%29.93 "Hg10 mi
9:58 AM66 °FScattered clouds.2 mph51%29.91 "Hg10 mi
8:58 AM63 °FPassing clouds.5 mph65%29.90 "Hg10 mi
7:58 AM58 °FPassing clouds.3 mph77%29.92 "Hg10 mi
6:58 AM51 °FClear.3 mph88%29.90 "Hg10 mi
5:58 AM52 °FPassing clouds.6 mph83%29.89 "Hg10 mi
4:58 AM50 °FClear.7 mph86%29.89 "Hg10 mi
3:58 AM50 °FClear.6 mph85%29.89 "Hg10 mi
2:58 AM51 °FPassing clouds.6 mph85%29.88 "Hg10 mi
Weather by CustomWeather, © 2014

See weather overviewHow to use our weather pages